TimeCDT,TemperatureF,Dew PointF,Humidity,Sea Level PressureIn,VisibilityMPH,Wind Direction,Wind SpeedMPH,Gust SpeedMPH,PrecipitationIn,Events,Conditions,WindDirDegrees,DateUTC
12:56 AM,34.0,25.0,70,30.39,10.0,NW,9.2,-,N/A,,Overcast,310,2012-10-26 05:56:00
1:56 AM,34.0,25.0,70,30.39,10.0,NW,9.2,-,N/A,,Overcast,310,2012-10-26 06:56:00
2:56 AM,34.0,25.0,70,30.42,10.0,WNW,10.4,-,N/A,,Overcast,290,2012-10-26 07:56:00
3:56 AM,34.0,24.1,67,30.43,10.0,NW,12.7,-,N/A,,Overcast,310,2012-10-26 08:56:00
4:56 AM,34.0,24.1,67,30.44,10.0,NW,12.7,-,N/A,,Overcast,310,2012-10-26 09:56:00
5:56 AM,34.0,24.1,67,30.47,10.0,NW,10.4,-,N/A,,Overcast,320,2012-10-26 10:56:00
6:56 AM,33.1,25.0,72,30.48,10.0,NNW,8.1,-,N/A,,Overcast,330,2012-10-26 11:56:00
7:56 AM,33.1,24.1,70,30.49,10.0,NW,8.1,-,N/A,,Overcast,320,2012-10-26 12:56:00
9:56 AM,36.0,24.1,62,30.53,10.0,NW,11.5,-,N/A,,Overcast,320,2012-10-26 14:56:00
10:56 AM,37.0,23.0,57,30.53,10.0,NNW,5.8,-,N/A,,Overcast,330,2012-10-26 15:56:00
11:56 AM,37.0,23.0,57,30.53,10.0,NNW,8.1,-,N/A,,Overcast,330,2012-10-26 16:56:00
12:56 PM,37.9,23.0,55,30.53,10.0,WNW,10.4,-,N/A,,Overcast,290,2012-10-26 17:56:00
1:56 PM,39.0,21.0,49,30.50,10.0,NNW,10.4,-,N/A,,Overcast,330,2012-10-26 18:56:00
2:56 PM,37.9,21.0,51,30.49,10.0,WNW,10.4,-,N/A,,Overcast,300,2012-10-26 19:56:00
3:56 PM,37.9,24.1,57,30.47,10.0,NW,12.7,-,N/A,,Overcast,320,2012-10-26 20:56:00
4:56 PM,37.9,21.9,53,30.46,10.0,NW,15.0,20.7,N/A,,Overcast,310,2012-10-26 21:56:00
5:56 PM,36.0,21.9,57,30.45,10.0,NW,8.1,-,N/A,,Overcast,310,2012-10-26 22:56:00
6:56 PM,35.1,21.9,59,30.46,10.0,NW,11.5,-,N/A,,Overcast,310,2012-10-26 23:56:00
7:56 PM,35.1,21.0,57,30.47,10.0,NW,8.1,-,N/A,,Overcast,320,2012-10-27 00:56:00
8:56 PM,35.1,23.0,61,30.46,10.0,WNW,4.6,-,N/A,,Overcast,290,2012-10-27 01:56:00
9:56 PM,34.0,25.0,70,30.44,10.0,Calm,Calm,-,N/A,,Overcast,0,2012-10-27 02:56:00
10:56 PM,34.0,25.0,70,30.43,10.0,Calm,Calm,-,N/A,,Overcast,0,2012-10-27 03:56:00
11:56 PM,34.0,26.1,73,30.43,10.0,Calm,Calm,-,N/A,,Overcast,0,2012-10-27 04:56:00